• In Hungary
  • List of Countries
  • For 7 days
  • Water Temperature
  • Satellite Maps
  • Weather Map
  • News
  • Weather Widgets
  • user-avatar
    Login

    Hourly Weather Kokuy

    Today, 17 October, Wednesday

    Time Temperature Precipitation Wind Pressure Humidity
    00:00 +2°C° 0 mm 1 mps 723 mmHg 59%
    01:00 +2°C° 0 mm 1 mps 723 mmHg 59%
    02:00 +2°C° 0 mm 1 mps 723 mmHg 59%
    03:00 +1°C° 0 mm 1 mps 723 mmHg 60%
    04:00 +1°C° 0 mm 1 mps 723 mmHg 60%
    05:00 +1°C° 0 mm 1 mps 723 mmHg 61%
    06:00 +2°C° 0 mm 1 mps 723 mmHg 59%
    07:00 +2°C° 0 mm 1 mps 723 mmHg 57%
    08:00 +2°C° 0 mm 0 mps 723 mmHg 52%
    09:00 +5°C° 0 mm 1 mps 723 mmHg 48%
    10:00 +7°C° 0 mm 1 mps 722 mmHg 43%
    11:00 +9°C° 0 mm 1 mps 722 mmHg 39%
    12:00 +9°C° 0 mm 2 mps 722 mmHg 38%
    13:00 +9°C° 0 mm 2 mps 721 mmHg 37%
    14:00 +10°C° 0 mm 2 mps 721 mmHg 37%
    15:00 +9°C° 0 mm 2 mps 721 mmHg 41%
    16:00 +7°C° 0 mm 2 mps 721 mmHg 46%
    17:00 +7°C° 0 mm 1 mps 721 mmHg 51%
    18:00 +6°C° 0 mm 1 mps 721 mmHg 53%
    19:00 +5°C° 0 mm 1 mps 721 mmHg 55%
    20:00 +4°C° 0 mm 1 mps 721 mmHg 57%
    21:00 +4°C° 0 mm 1 mps 721 mmHg 60%
    22:00 +4°C° 0 mm 1 mps 721 mmHg 62%
    23:00 +3°C° 0 mm 1 mps 721 mmHg 65%

    Tomorrow, 18 October, Thursday

    Time Temperature Precipitation Wind Pressure Humidity
    00:00 +3°C° 0 mm 1 mps 721 mmHg 68%
    01:00 +3°C° 0 mm 1 mps 721 mmHg 71%
    02:00 +3°C° 0 mm 1 mps 721 mmHg 74%
    03:00 +3°C° 0 mm 1 mps 721 mmHg 77%
    04:00 +2°C° 0 mm 1 mps 721 mmHg 80%
    05:00 +2°C° 0 mm 1 mps 721 mmHg 83%
    06:00 +3°C° 0 mm 1 mps 721 mmHg 81%
    07:00 +3°C° 0 mm 1 mps 721 mmHg 80%
    08:00 +4°C° 0 mm 1 mps 721 mmHg 78%
    09:00 +5°C° 0 mm 2 mps 721 mmHg 71%
    10:00 +7°C° 0 mm 2 mps 721 mmHg 64%
    11:00 +9°C° 0 mm 2 mps 721 mmHg 56%
    12:00 +10°C° 0 mm 3 mps 720 mmHg 54%
    13:00 +11°C° 0 mm 3 mps 720 mmHg 53%
    14:00 +12°C° 0 mm 3 mps 720 mmHg 51%
    15:00 +11°C° 0 mm 3 mps 720 mmHg 56%
    16:00 +9°C° 0 mm 2 mps 720 mmHg 62%
    17:00 +8°C° 0 mm 2 mps 720 mmHg 67%
    18:00 +8°C° 0 mm 1 mps 720 mmHg 70%
    19:00 +8°C° 0 mm 1 mps 720 mmHg 73%
    20:00 +7°C° 0 mm 1 mps 720 mmHg 76%
    21:00 +7°C° 0 mm 1 mps 720 mmHg 77%
    22:00 +6°C° 0 mm 1 mps 721 mmHg 78%
    23:00 +6°C° 0 mm 1 mps 721 mmHg 80%

    Day after tomorrow, 19 October, Friday

    Time Temperature Precipitation Wind Pressure Humidity
    00:00 +6°C° 0 mm 1 mps 721 mmHg 81%
    01:00 +5°C° 0 mm 1 mps 721 mmHg 82%
    02:00 +5°C° 0 mm 1 mps 721 mmHg 83%
    03:00 +5°C° 0 mm 1 mps 721 mmHg 84%
    04:00 +4°C° 0 mm 1 mps 721 mmHg 85%
    05:00 +4°C° 0 mm 1 mps 721 mmHg 86%
    06:00 +4°C° 0 mm 1 mps 721 mmHg 84%
    07:00 +5°C° 0 mm 1 mps 721 mmHg 82%
    08:00 +5°C° 0 mm 1 mps 721 mmHg 81%
    09:00 +7°C° 0 mm 1 mps 721 mmHg 71%
    10:00 +8°C° 0 mm 2 mps 721 mmHg 62%
    11:00 +10°C° 0 mm 2 mps 721 mmHg 53%
    12:00 +12°C° 0 mm 2 mps 720 mmHg 49%
    13:00 +12°C° 0 mm 3 mps 720 mmHg 45%
    14:00 +13°C° 0 mm 3 mps 719 mmHg 41%
    15:00 +12°C° 0 mm 3 mps 719 mmHg 46%
    16:00 +10°C° 0 mm 2 mps 719 mmHg 50%
    17:00 +9°C° 0 mm 2 mps 719 mmHg 55%
    18:00 +8°C° 0 mm 2 mps 719 mmHg 58%
    19:00 +7°C° 0 mm 2 mps 719 mmHg 61%
    20:00 +6°C° 0 mm 2 mps 719 mmHg 64%
    21:00 +6°C° 0 mm 2 mps 720 mmHg 66%
    22:00 +5°C° 0 mm 2 mps 720 mmHg 69%
    23:00 +6°C° 0 mm 1 mps 720 mmHg 71%

    20 October, Saturday

    Time Temperature Precipitation Wind Pressure Humidity
    00:00 +5°C° 0 mm 1 mps 719 mmHg 71%
    01:00 +5°C° 0 mm 1 mps 719 mmHg 72%
    02:00 +4°C° 0 mm 1 mps 719 mmHg 73%
    03:00 +4°C° 0 mm 1 mps 719 mmHg 73%
    04:00 +4°C° 0 mm 1 mps 719 mmHg 73%
    05:00 +3°C° 0 mm 1 mps 718 mmHg 73%
    06:00 +3°C° 0 mm 1 mps 718 mmHg 70%
    07:00 +4°C° 0 mm 1 mps 718 mmHg 67%
    08:00 +4°C° 0 mm 1 mps 718 mmHg 64%
    09:00 +6°C° 0 mm 1 mps 718 mmHg 55%
    10:00 +7°C° 0 mm 2 mps 718 mmHg 47%
    11:00 +9°C° 0 mm 2 mps 718 mmHg 39%
    12:00 +10°C° 0 mm 2 mps 717 mmHg 37%
    13:00 +12°C° 0 mm 2 mps 717 mmHg 35%
    14:00 +13°C° 0 mm 2 mps 716 mmHg 33%
    15:00 +12°C° 0 mm 2 mps 716 mmHg 37%
    16:00 +11°C° 0 mm 1 mps 715 mmHg 42%
    17:00 +10°C° 0 mm 1 mps 715 mmHg 46%
    18:00 +9°C° 0 mm 1 mps 715 mmHg 48%
    19:00 +9°C° 0 mm 1 mps 715 mmHg 51%
    20:00 +8°C° 0 mm 1 mps 715 mmHg 54%
    21:00 +8°C° 0.5 mm 1 mps 715 mmHg 59%
    22:00 +8°C° 0.5 mm 1 mps 714 mmHg 64%
    23:00 +7°C° 0.5 mm 1 mps 714 mmHg 70%

    21 October, Sunday

    Time Temperature Precipitation Wind Pressure Humidity
    00:00 +7°C° 0.7 mm 1 mps 714 mmHg 74%
    01:00 +7°C° 0.7 mm 1 mps 713 mmHg 79%
    02:00 +6°C° 0.7 mm 1 mps 713 mmHg 83%
    03:00 +6°C° 0.1 mm 1 mps 713 mmHg 84%
    04:00 +6°C° 0.1 mm 1 mps 713 mmHg 84%
    05:00 +6°C° 0.1 mm 1 mps 712 mmHg 85%
    06:00 +6°C° 0.2 mm 1 mps 712 mmHg 86%
    07:00 +6°C° 0.2 mm 1 mps 712 mmHg 86%
    08:00 +6°C° 0.2 mm 0 mps 712 mmHg 86%
    09:00 +7°C° 0 mm 1 mps 712 mmHg 83%
    10:00 +8°C° 0 mm 1 mps 712 mmHg 79%
    11:00 +9°C° 0 mm 1 mps 712 mmHg 75%
    12:00 +9°C° 0 mm 1 mps 712 mmHg 75%
    13:00 +10°C° 0 mm 1 mps 712 mmHg 75%
    14:00 +10°C° 0 mm 1 mps 711 mmHg 75%
    15:00 +9°C° 0 mm 1 mps 711 mmHg 78%
    16:00 +9°C° 0 mm 1 mps 711 mmHg 81%
    17:00 +8°C° 0 mm 1 mps 711 mmHg 84%
    18:00 +7°C° 0.1 mm 1 mps 711 mmHg 87%
    19:00 +7°C° 0.1 mm 1 mps 711 mmHg 89%
    20:00 +6°C° 0.1 mm 1 mps 712 mmHg 91%
    21:00 +5°C° 0.1 mm 2 mps 711 mmHg 91%
    22:00 +5°C° 0.1 mm 2 mps 711 mmHg 91%
    23:00 +4°C° 0.1 mm 2 mps 711 mmHg 91%

    22 October, Monday

    Time Temperature Precipitation Wind Pressure Humidity
    00:00 +4°C° 0.2 mm 2 mps 711 mmHg 90%
    01:00 +4°C° 0.2 mm 2 mps 711 mmHg 90%
    02:00 +3°C° 0.2 mm 2 mps 711 mmHg 89%
    03:00 +3°C° 0.4 mm 2 mps 711 mmHg 89%
    04:00 +2°C° 0.4 mm 3 mps 711 mmHg 89%
    05:00 +2°C° 0.4 mm 3 mps 711 mmHg 89%
    06:00 +2°C° 0.5 mm 3 mps 711 mmHg 88%
    07:00 +2°C° 0.5 mm 3 mps 711 mmHg 87%
    08:00 +2°C° 0.5 mm 3 mps 712 mmHg 86%
    09:00 +2°C° 0.3 mm 3 mps 712 mmHg 83%
    10:00 +3°C° 0.3 mm 3 mps 712 mmHg 80%
    11:00 +3°C° 0.3 mm 3 mps 712 mmHg 78%
    12:00 +4°C° 0.3 mm 3 mps 712 mmHg 77%
    13:00 +4°C° 0.3 mm 3 mps 712 mmHg 76%
    14:00 +4°C° 0.3 mm 3 mps 712 mmHg 76%
    15:00 +4°C° 0.3 mm 3 mps 712 mmHg 77%
    16:00 +3°C° 0.3 mm 3 mps 712 mmHg 78%
    17:00 +3°C° 0.3 mm 3 mps 713 mmHg 80%
    18:00 +3°C° 0.1 mm 3 mps 713 mmHg 81%
    19:00 +2°C° 0.1 mm 3 mps 713 mmHg 82%
    20:00 +2°C° 0.1 mm 3 mps 713 mmHg 83%
    21:00 +2°C° 0 mm 2 mps 713 mmHg 84%
    22:00 +1°C° 0 mm 2 mps 713 mmHg 86%
    23:00 -1°C° 0 mm 2 mps 714 mmHg 87%
    Show more